This is the latest recevied weather packets stored in our database for station/object K5FEP. If no packets are shown the sender has not sent any weather packets the latest 10 day(s).
| Time | Temp. | Humidity | Pressure | Rain* | Wind** | Luminosity | Snow |
|---|---|---|---|---|---|---|---|
| 1788208922 | 33.89° C | 45% | 1017.1 hPa | 0 mm | - | 148 W/m² | - |
| 1788208616 | 33.89° C | 44% | 1017.1 hPa | 0 mm | - | 142 W/m² | - |
| 1788208316 | 33.89° C | 43% | 1017.3 hPa | 0 mm | - | 202 W/m² | - |
| 1788208015 | 34.44° C | 42% | 1017.4 hPa | 0 mm | - | 170 W/m² | - |
| 1788207710 | 34.44° C | 41% | 1017.2 hPa | 0 mm | - | 183 W/m² | - |
| 1788207409 | 35° C | 41% | 1017.2 hPa | 0 mm | - | 514 W/m² | - |
| 1788207109 | 35.56° C | 39% | 1017.3 hPa | 0 mm | - | 542 W/m² | - |
| 1788206805 | 36.11° C | 41% | 1017.6 hPa | 0 mm | - | 653 W/m² | - |
| 1788206505 | 35.56° C | 40% | 1017.4 hPa | 0 mm | - | 666 W/m² | - |
| 1788206200 | 35.56° C | 39% | 1017.4 hPa | 0 mm | - | 672 W/m² | - |
| 1788205895 | 35° C | 41% | 1017.4 hPa | 0 mm | - | 682 W/m² | - |
| 1788205590 | 35° C | 41% | 1017.4 hPa | 0 mm | - | 432 W/m² | - |
| 1788205285 | 33.89° C | 44% | 1017.6 hPa | 0 mm | - | 787 W/m² | - |
| 1788204980 | 33.89° C | 45% | 1017.6 hPa | 0 mm | - | 870 W/m² | - |
| 1788204675 | 33.33° C | 44% | 1017.6 hPa | 0 mm | - | 479 W/m² | - |
| 1788204371 | 33.33° C | 44% | 1017.6 hPa | 0 mm | - | 284 W/m² | - |
| 1788204066 | 33.33° C | 45% | 1017.9 hPa | 0 mm | - | 324 W/m² | - |
| 1788203762 | 33.33° C | 44% | 1017.7 hPa | 0 mm | - | 307 W/m² | - |
| 1788203457 | 32.78° C | 44% | 1017.8 hPa | 0 mm | - | 253 W/m² | - |
| 1788203153 | 33.33° C | 46% | 1017.9 hPa | 0 mm | - | 366 W/m² | - |
| 1788202851 | 33.89° C | 46% | 1018.1 hPa | 0 mm | - | 400 W/m² | - |
| 1788202547 | 33.33° C | 48% | 1018.1 hPa | 0 mm | - | 996 W/m² | - |
| 1788202243 | 33.33° C | 49% | 1018.3 hPa | 0 mm | - | 901 W/m² | - |
| 1788201942 | 33.33° C | 49% | 1018.1 hPa | 0 mm | - | 861 W/m² | - |
| 1788201638 | 32.78° C | 49% | 1018.2 hPa | 0 mm | - | 800 W/m² | - |
* Rain latest hour (hover to see other rain measurements)
** Current wind speed in m/s (hover to see current wind gust speed)